FW1341 Weather Reports


Display with metric or nautical units.
time (UTC)temp
F
wind
direction
speed
MPH
gust
MPH
rain 1hr
in
rain 24hr
in
rain mn
in
humidity
%
barometer
mb
20260504201234 78 225 6.0 19.0 0.00 0.00 0.00 31 1006.9
20260504200727 78 186 6.0 18.0 0.00 0.00 0.00 31 1007.0
20260504200226 78 235 7.0 16.0 0.00 0.00 0.00 31 1007.0
20260504195227 78 205 5.0 17.0 0.00 0.00 0.00 30 1007.0
20260504194725 78 203 5.0 16.0 0.00 0.00 0.00 30 1007.1
20260504194226 78 201 5.0 13.0 0.00 0.00 0.00 31 1007.2
20260504193726 78 200 6.0 14.0 0.00 0.00 0.00 31 1007.3
20260504193228 77 160 5.0 14.0 0.00 0.00 0.00 31 1007.3
20260504192725 77 252 5.0 14.0 0.00 0.00 0.00 32 1007.4
20260504192226 77 195 5.0 14.0 0.00 0.00 0.00 31 1007.7
20260504191725 77 177 6.0 15.0 0.00 0.00 0.00 32 1007.8
20260504191224 77 203 7.0 15.0 0.00 0.00 0.00 32 1007.9
20260504190723 77 173 5.0 13.0 0.00 0.00 0.00 31 1008.0
20260504190224 77 173 4.0 13.0 0.00 0.00 0.00 31 1008.1
20260504185725 77 136 4.0 13.0 0.00 0.00 0.00 31 1008.2
20260504185225 77 148 5.0 13.0 0.00 0.00 0.00 31 1008.3
20260504184717 76 198 6.0 15.0 0.00 0.00 0.00 32 1008.3
20260504184219 76 212 6.0 15.0 0.00 0.00 0.00 32 1008.4
20260504183718 76 163 4.0 14.0 0.00 0.00 0.00 33 1008.4
20260504183219 76 195 4.0 12.0 0.00 0.00 0.00 33 1008.5
20260504182719 76 210 6.0 13.0 0.00 0.00 0.00 33 1008.7
20260504182218 76 205 6.0 15.0 0.00 0.00 0.00 33 1008.7
20260504181719 75 214 6.0 15.0 0.00 0.00 0.00 33 1008.7
20260504181219 76 143 5.0 12.0 0.00 0.00 0.00 33 1008.9
20260504180719 75 179 6.0 14.0 0.00 0.00 0.00 33 1008.9
20260504180218 75 242 5.0 14.0 0.00 0.00 0.00 34 1008.9
20260504175720 76 204 4.0 9.0 0.00 0.00 0.00 33 1009.0
20260504175217 75 170 4.0 12.0 0.00 0.00 0.00 34 1009.1
20260504174718 75 224 5.0 12.0 0.00 0.00 0.00 34 1009.3
20260504174219 75 226 4.0 12.0 0.00 0.00 0.00 34 1009.2
20260504173218 74 214 4.0 14.0 0.00 0.00 0.00 35 1009.4
20260504172714 74 160 4.0 14.0 0.00 0.00 0.00 35 1009.4
20260504172214 74 287 6.0 15.0 0.00 0.00 0.00 35 1009.5
20260504171708 73 225 7.0 15.0 0.00 0.00 0.00 35 1009.6
20260504171203 73 194 5.0 13.0 0.00 0.00 0.00 35 1009.7
20260504170701 74 143 4.0 11.0 0.00 0.00 0.00 34 1009.8
20260504170201 73 207 5.0 11.0 0.00 0.00 0.00 35 1009.8
20260504160152 72 197 4.0 11.0 0.00 0.00 0.00 34 1010.4
20260504150647 69 279 2.0 7.0 0.00 0.00 0.00 40 1010.9
20260504150148 68 227 2.0 6.0 0.00 0.00 0.00 42 1011.0
20260504141146 64 187 1.0 6.0 0.00 0.00 0.00 45 1011.2
20260504140644 64 278 1.0 6.0 0.00 0.00 0.00 46 1011.3
20260504140143 64 198 2.0 7.0 0.00 0.00 0.00 46 1011.4
20260504130635 59 215 2.0 7.0 0.00 0.00 0.00 54 1011.8
20260504130135 59 174 2.0 9.0 0.00 0.00 0.00 54 1011.8
20260504120128 56 184 4.0 13.0 0.00 0.00 0.00 57 1012.0
20260504110624 53 203 2.0 8.0 0.00 0.00 0.00 60 1012.2
20260504110124 53 298 2.0 6.0 0.00 0.00 0.00 61 1012.3
20260504100116 54 195 0.0 4.0 0.00 0.00 0.00 60 1012.1
20260504090110 55 198 1.0 10.0 0.00 0.00 0.00 57 1012.3
20260504081557 54 210 2.0 6.0 0.00 0.00 0.00 55 1012.6
20260504081055 54 233 2.0 6.0 0.00 0.00 0.00 55 1012.5
20260504080555 54 248 2.0 7.0 0.00 0.00 0.00 55 1012.5
20260504050504 54 236 0.0 2.0 0.00 0.00 0.00 61 1012.7
20260504050001 54 203 0.0 2.0 0.00 0.00 0.00 59 1012.8
20260504045502 54 225 0.0 2.0 0.00 0.00 0.00 59 1012.7
20260504044959 54 215 0.0 0.0 0.00 0.00 0.00 59 1012.8
20260504044500 54 214 0.0 0.0 0.00 0.00 0.00 59 1012.7
20260504044000 54 212 0.0 0.0 0.00 0.00 0.00 58 1012.8
20260504042956 54 210 0.0 3.0 0.00 0.00 0.00 57 1012.7
20260504042457 55 238 0.0 1.0 0.00 0.00 0.00 56 1012.8
20260504041454 55 201 1.0 5.0 0.00 0.00 0.00 55 1012.7
20260504040954 55 273 1.0 4.0 0.00 0.00 0.00 54 1012.7
20260504040455 55 210 1.0 6.0 0.00 0.00 0.00 54 1012.7
20260504035954 55 273 1.0 6.0 0.00 0.00 0.00 54 1012.8
20260504035447 55 229 1.0 5.0 0.00 0.00 0.00 55 1012.8
20260504034946 55 207 0.0 2.0 0.00 0.00 0.00 56 1012.7
20260504034445 55 235 1.0 7.0 0.00 0.00 0.00 56 1012.8
20260504032941 56 221 1.0 4.0 0.00 0.00 0.00 55 1012.5
20260504032438 56 207 1.0 3.0 0.00 0.00 0.00 55 1012.5
20260504031438 56 204 1.0 3.0 0.00 0.00 0.00 55 1012.5
20260504030938 56 287 0.0 4.0 0.00 0.00 0.00 53 1012.5
20260504030438 56 217 1.0 4.0 0.00 0.00 0.00 52 1012.4
20260504025937 56 208 1.0 4.0 0.00 0.00 0.00 51 1012.4
20260504025436 57 212 1.0 4.0 0.00 0.00 0.00 49 1012.3
20260504024928 57 208 1.0 6.0 0.00 0.00 0.00 48 1012.3
20260504024426 57 228 1.0 6.0 0.00 0.00 0.00 47 1012.2
20260504023926 57 201 2.0 6.0 0.00 0.00 0.00 46 1012.2
20260504023428 57 238 1.0 6.0 0.00 0.00 0.00 44 1012.2
20260504022927 56 188 0.0 3.0 0.00 0.00 0.00 43 1012.2
20260504022428 56 226 0.0 2.0 0.00 0.00 0.00 44 1012.2
20260504021418 56 211 0.0 0.0 0.00 0.00 0.00 53 1012.2
20260504020919 56 211 0.0 0.0 0.00 0.00 0.00 47 1012.1
20260504020416 56 211 0.0 0.0 0.00 0.00 0.00 45 1012.0
20260504015406 57 231 0.0 0.0 0.00 0.00 0.00 51 1012.1
20260504014905 57 232 0.0 0.0 0.00 0.00 0.00 46 1012.0
20260504013901 58 232 0.0 0.0 0.00 0.00 0.00 40 1011.9
20260504013401 58 232 0.0 0.0 0.00 0.00 0.00 41 1011.9
20260504012858 58 232 0.0 0.0 0.00 0.00 0.00 38 1011.9
20260504012358 58 232 0.0 0.0 0.00 0.00 0.00 37 1011.9
20260504011859 58 263 0.0 0.0 0.00 0.00 0.00 38 1011.8
20260504011357 58 231 0.0 0.0 0.00 0.00 0.00 40 1011.8
20260504010355 59 232 0.0 1.0 0.00 0.00 0.00 35 1011.8
20260504005848 59 232 0.0 1.0 0.00 0.00 0.00 35 1011.8
20260504004845 60 194 0.0 3.0 0.00 0.00 0.00 33 1011.7
20260504004343 61 303 0.0 3.0 0.00 0.00 0.00 36 1011.6
20260504003341 61 302 0.0 4.0 0.00 0.00 0.00 32 1011.5
20260504002839 61 338 0.0 4.0 0.00 0.00 0.00 32 1011.5
20260504002339 61 305 0.0 4.0 0.00 0.00 0.00 32 1011.4
20260504001839 61 290 0.0 3.0 0.00 0.00 0.00 33 1011.4
20260504001337 61 332 0.0 3.0 0.00 0.00 0.00 31 1011.4
20260504000838 61 320 0.0 2.0 0.00 0.00 0.00 31 1011.4
20260503234832 62 250 0.0 5.0 0.00 0.00 0.00 30 1011.1
20260503234332 63 288 1.0 5.0 0.00 0.00 0.00 29 1011.1
20260503233327 64 296 2.0 8.0 0.00 0.00 0.00 28 1011.1
20260503232827 64 280 1.0 8.0 0.00 0.00 0.00 28 1011.0
20260503232327 64 208 1.0 6.0 0.00 0.00 0.00 28 1010.9
20260503230824 64 23 3.0 8.0 0.00 0.00 0.00 27 1010.9
20260503225823 64 339 2.0 9.0 0.00 0.00 0.00 27 1010.9
20260503225322 65 327 2.0 9.0 0.00 0.00 0.00 27 1010.9
20260503224825 64 280 3.0 10.0 0.00 0.00 0.00 27 1011.0
20260503224324 64 268 3.0 10.0 0.00 0.00 0.00 27 1011.1
20260503223824 65 354 2.0 6.0 0.00 0.00 0.00 27 1011.0
20260503223324 65 8 2.0 8.0 0.00 0.00 0.00 27 1011.0
20260503222320 65 249 2.0 8.0 0.00 0.00 0.00 27 1011.0
20260503221818 65 295 3.0 8.0 0.00 0.00 0.00 27 1011.1
20260503221318 65 255 2.0 8.0 0.00 0.00 0.00 26 1011.1
20260503220817 65 340 2.0 8.0 0.00 0.00 0.00 27 1011.1
20260503220317 64 341 3.0 11.0 0.00 0.00 0.00 27 1011.1
20260503215814 64 304 4.0 12.0 0.00 0.00 0.00 27 1011.1
20260503215312 64 37 3.0 12.0 0.00 0.00 0.00 27 1011.2
20260503214812 64 342 5.0 13.0 0.00 0.00 0.00 28 1011.3
20260503214313 63 330 6.0 14.0 0.00 0.00 0.00 27 1011.3
20260503213811 64 15 4.0 14.0 0.00 0.00 0.00 27 1011.3
20260503212806 64 263 4.0 15.0 0.00 0.00 0.00 27 1011.1
20260503212305 64 15 4.0 14.0 0.00 0.00 0.00 27 1011.2
20260503211803 64 288 4.0 14.0 0.00 0.00 0.00 28 1011.1
20260503211306 64 315 3.0 11.0 0.00 0.00 0.00 29 1011.1
20260503210805 63 339 4.0 11.0 0.00 0.00 0.00 29 1011.1
20260503210306 63 307 4.0 11.0 0.00 0.00 0.00 28 1011.3
20260503205800 64 327 3.0 10.0 0.00 0.00 0.00 28 1011.3
20260503205258 64 345 3.0 10.0 0.00 0.00 0.00 28 1011.3
20260503203800 63 20 4.0 14.0 0.00 0.00 0.00 28 1011.4
20260503203300 63 33 4.0 14.0 0.00 0.00 0.00 29 1011.4
20260503202753 62 334 5.0 14.0 0.00 0.00 0.00 30 1011.5
20260503202253 63 307 4.0 10.0 0.00 0.00 0.00 29 1011.6